Regional Weather Roundup
Issued by NWS Northern Indiana

Home | Current Version | Previous Version | Graphics & Text | Print | Product List | Glossary On
Versions: 1 2 3 4 5 6 7 8 9 10 11 12 13 14 15 16 17 18 19 20 21 22 23 24 25 26 27 28 29 30 31 32 33 34 35 36 37 38 39 40 41 42 43 44 45 46 47 48 49 50
000
ASUS43 KIWX 080000
RWRIWX

KIWX WEATHER ROUNDUP
NATIONAL WEATHER SERVICE NORTHERN INDIANA
700 PM EST SUN FEB 07 2016

NOTE: "FAIR" INDICATES FEW OR NO CLOUDS BELOW 12,000 FEET WITH NO
SIGNIFICANT WEATHER AND/OR OBSTRUCTIONS TO VISIBILITY.

* THESE STATIONS ARE NOT UNDER NWS QUALITY CONTROL. THEY ALSO MAY NOT
  REPORT WEATHER SUCH AS PRECIPITATION OR FOG.

INZ001>027-080100-
NORTHERN INDIANA

CITY           SKY/WX    TMP DP  RH WIND       PRES   REMARKS
GARY*          MOCLDY    43  30  61 SW14      29.77S
SOUTH BEND     CLEAR     40  32  73 SW10      29.76S
6HR MIN TEMP:  40; 6HR MAX TEMP:  46;

GOSHEN         CLOUDY    40  32  73 SW10      29.76S
6HR MIN TEMP:  40; 6HR MAX TEMP:  48;

ANGOLA*        CLEAR     43  30  61 SW6       29.76S
FORT WAYNE     CLOUDY    41  31  67 SW7       29.79S
6HR MIN TEMP:  41; 6HR MAX TEMP:  49;

PERU/GRISSOM   CLOUDY    41  33  73 W9        29.78R
6HR MIN TEMP:  41; 6HR MAX TEMP:  51;


$$
INZ028>050-080100-
CENTRAL INDIANA

CITY           SKY/WX    TMP DP  RH WIND       PRES   REMARKS
LAFAYETTE      PTCLDY    42  32  67 W12       29.81S
6HR MIN TEMP:  42; 6HR MAX TEMP:  51;

KOKOMO*          N/A     45  30  57 W15       29.80S
6HR MIN TEMP:  45; 6HR MAX TEMP:  52;

MUNCIE*        CLOUDY    49  28  44 SW10      29.80S
6HR MIN TEMP:  49; 6HR MAX TEMP:  53;

INDIANAPOLIS   CLOUDY    48  27  44 SW13      29.81S
6HR MIN TEMP:  48; 6HR MAX TEMP:  55;


$$
MIZ043>046-050>051-056>058-064>065-071>073-077>080-080100-
SOUTHWEST LOWER MICHIGAN

CITY           SKY/WX    TMP DP  RH WIND       PRES   REMARKS
BATTLE CREEK   CLOUDY    41  30  65 SW9       29.74S
6HR MIN TEMP:  41; 6HR MAX TEMP:  46;

BENTON HARBOR  PTCLDY    41  32  70 SW15G25   29.74S
6HR MIN TEMP:  41; 6HR MAX TEMP:  46;

COLDWATER*     CLOUDY    42  32  66 SW9       29.75S
6HR MIN TEMP:  42; 6HR MAX TEMP:  46;

HILLSDALE*     CLOUDY    42  29  60 SW6       29.75S
6HR MIN TEMP:  41; 6HR MAX TEMP:  45;

HOLLAND        CLOUDY    40  32  73 SW13      29.73R
6HR MIN TEMP:  40; 6HR MAX TEMP:  43;

GRAND RAPIDS   MOCLDY    40  31  70 SW9       29.72R
6HR MIN TEMP:  40; 6HR MAX TEMP:  45;

KALAMAZOO      CLOUDY    42  31  64 SW10      29.74S
6HR MIN TEMP:  42; 6HR MAX TEMP:  47;

STURGIS*       MOCLDY    40  32  73 SW10      29.75S
6HR MIN TEMP:  40; 6HR MAX TEMP:  45;

THREE RIVERS*  FAIR      42  32  68 SW6       29.75S
6HR MIN TEMP:  42; 6HR MAX TEMP:  47;


$$
OHZ001>008-015>018-024>025-080100-
NORTHWEST OHIO

CITY           SKY/WX    TMP DP  RH WIND       PRES   REMARKS
DEFIANCE       CLOUDY    45  32  60 S8        29.78F
6HR MIN TEMP:  45; 6HR MAX TEMP:  50;

FINDLAY        CLOUDY    45  30  55 S10       29.80S
6HR MIN TEMP:  45; 6HR MAX TEMP:  52;

TOLEDO EXPRESS CLOUDY    47  29  49 S14G21    29.78S
6HR MIN TEMP:  47; 6HR MAX TEMP:  50;

TOLEDO METCALF CLOUDY    45  30  55 S9        29.80S
6HR MIN TEMP:  45; 6HR MAX TEMP:  53;

LIMA           CLOUDY    46  29  51 S9        29.81S
6HR MIN TEMP:  46; 6HR MAX TEMP:  51;


$$
AND FOR LAKE MICHIGAN COASTAL AND OPEN LAKE BUOY OBSERVATIONS

STATION/POSITION TEMP    WIND        PRES    VSBY  WAVE
                 AIR SEA DIR/SP/G                  HT/PER
                 (F)     (DEG/KT/KT) (MB)    (MI)  (FT/S)
CALUMET HARBOR    43     230/ 10/ 14 1006.9R
MICHIGAN CITY     43     200/ 15/ 17   N/A
BURNS HARBOR      43     240/ 15/ 21 1008.5R
SAINT JOSEPH      38     180/ 10/ 12 1007.8S

$$
&&



USA.gov is the U.S. government's official web portal to all federal, state and local government web resources and services.